Time,TemperatureF,DewpointF,PressureIn,WindDirection,WindDirectionDegrees,WindSpeedMPH,WindSpeedGustMPH,Humidity,HourlyPrecipIn,Conditions,Clouds,dailyrainin,SoftwareType,DateUTC
2013-01-05 00:00:00,27.2,19.4,30.27,West,262,5.0,8.0,72,0.00,,,0.00,WeatherCatV1.10B1784,2013-01-05 05:00:00,
2013-01-05 00:05:00,27.2,19.4,30.27,West,265,5.0,9.0,72,0.00,,,0.00,WeatherCatV1.10B1784,2013-01-05 05:05:00,
2013-01-05 00:10:00,27.1,19.3,30.27,WSW,249,11.0,13.0,72,0.00,,,0.00,WeatherCatV1.10B1784,2013-01-05 05:10:00,
2013-01-05 00:15:00,27.2,19.4,30.27,WSW,253,5.0,7.0,72,0.00,,,0.00,WeatherCatV1.10B1784,2013-01-05 05:15:00,
2013-01-05 00:20:00,27.1,19.3,30.27,WSW,243,3.0,7.0,72,0.00,,,0.00,WeatherCatV1.10B1784,2013-01-05 05:20:00,
2013-01-05 00:25:00,27.0,19.2,30.27,West,260,4.0,7.0,72,0.00,,,0.00,WeatherCatV1.10B1784,2013-01-05 05:25:00,
2013-01-05 00:30:00,27.0,19.2,30.27,WSW,243,6.0,9.0,72,0.00,,,0.00,WeatherCatV1.10B1784,2013-01-05 05:30:00,
2013-01-05 00:35:00,26.9,19.1,30.27,West,259,5.0,7.0,72,0.00,,,0.00,WeatherCatV1.10B1784,2013-01-05 05:35:00,
2013-01-05 00:40:00,26.8,19.0,30.27,WNW,283,4.0,8.0,72,0.00,,,0.00,WeatherCatV1.10B1784,2013-01-05 05:40:00,
2013-01-05 00:43:00,26.7,19.2,30.27,West,263,6.0,10.0,73,0.00,,,0.00,WeatherCatV1.10B1784,2013-01-05 05:43:00,
2013-01-05 00:48:00,26.8,19.0,30.27,West,264,6.0,12.0,72,0.00,,,0.00,WeatherCatV1.10B1784,2013-01-05 05:48:00,
2013-01-05 00:53:00,26.7,18.9,30.28,West,264,6.0,8.0,72,0.00,,,0.00,WeatherCatV1.10B1784,2013-01-05 05:53:00,
2013-01-05 00:58:00,26.8,19.0,30.28,West,274,6.0,13.0,72,0.00,,,0.00,WeatherCatV1.10B1784,2013-01-05 05:58:00,
2013-01-05 01:03:00,26.7,18.9,30.28,West,271,9.0,11.0,72,0.00,,,0.00,WeatherCatV1.10B1784,2013-01-05 06:03:00,
2013-01-05 01:08:00,26.7,18.9,30.28,West,270,5.0,10.0,72,0.00,,,0.00,WeatherCatV1.10B1784,2013-01-05 06:08:00,
2013-01-05 01:13:00,26.7,18.9,30.28,WSW,255,7.0,12.0,72,0.00,,,0.00,WeatherCatV1.10B1784,2013-01-05 06:13:00,
2013-01-05 01:18:00,26.6,19.1,30.28,WSW,252,8.0,12.0,73,0.00,,,0.00,WeatherCatV1.10B1784,2013-01-05 06:18:00,
2013-01-05 01:23:00,26.5,19.0,30.28,WSW,255,6.0,11.0,73,0.00,,,0.00,WeatherCatV1.10B1784,2013-01-05 06:23:00,
2013-01-05 01:28:00,26.4,18.9,30.28,WSW,248,6.0,6.0,73,0.00,,,0.00,WeatherCatV1.10B1784,2013-01-05 06:28:00,
2013-01-05 01:33:00,26.3,18.8,30.28,West,273,5.0,9.0,73,0.00,,,0.00,WeatherCatV1.10B1784,2013-01-05 06:33:00,
2013-01-05 01:38:00,26.3,18.8,30.28,WNW,283,5.0,11.0,73,0.00,,,0.00,WeatherCatV1.10B1784,2013-01-05 06:38:00,
2013-01-05 01:43:00,26.2,18.7,30.29,West,262,4.0,9.0,73,0.00,,,0.00,WeatherCatV1.10B1784,2013-01-05 06:43:00,
2013-01-05 01:48:00,26.1,18.7,30.29,West,280,4.0,5.0,73,0.00,,,0.00,WeatherCatV1.10B1784,2013-01-05 06:48:00,
2013-01-05 01:53:00,26.1,18.7,30.29,WSW,243,4.0,5.0,73,0.00,,,0.00,WeatherCatV1.10B1784,2013-01-05 06:53:00,
2013-01-05 01:58:00,26.1,19.0,30.29,WSW,255,5.0,10.0,74,0.00,,,0.00,WeatherCatV1.10B1784,2013-01-05 06:58:00,
2013-01-05 02:03:00,26.0,18.9,30.30,West,269,4.0,5.0,74,0.00,,,0.00,WeatherCatV1.10B1784,2013-01-05 07:03:00,
2013-01-05 02:08:00,26.1,19.0,30.30,West,273,3.0,5.0,74,0.00,,,0.00,WeatherCatV1.10B1784,2013-01-05 07:08:00,
2013-01-05 02:13:00,26.1,19.0,30.30,WNW,288,4.0,5.0,74,0.00,,,0.00,WeatherCatV1.10B1784,2013-01-05 07:13:00,
2013-01-05 02:18:00,26.1,19.0,30.31,West,260,3.0,7.0,74,0.00,,,0.00,WeatherCatV1.10B1784,2013-01-05 07:18:00,
2013-01-05 02:23:00,26.2,19.1,30.31,West,259,4.0,7.0,74,0.00,,,0.00,WeatherCatV1.10B1784,2013-01-05 07:23:00,
2013-01-05 02:28:00,26.2,19.1,30.31,West,280,3.0,8.0,74,0.00,,,0.00,WeatherCatV1.10B1784,2013-01-05 07:28:00,
2013-01-05 02:33:00,26.2,19.1,30.31,WSW,240,4.0,8.0,74,0.00,,,0.00,WeatherCatV1.10B1784,2013-01-05 07:33:00,
2013-01-05 02:38:00,26.3,19.2,30.32,West,259,3.0,6.0,74,0.00,,,0.00,WeatherCatV1.10B1784,2013-01-05 07:38:00,
2013-01-05 02:43:00,26.3,19.2,30.31,WNW,285,4.0,5.0,74,0.00,,,0.00,WeatherCatV1.10B1784,2013-01-05 07:43:00,
2013-01-05 02:48:00,26.3,19.2,30.32,WSW,253,8.0,8.0,74,0.00,,,0.00,WeatherCatV1.10B1784,2013-01-05 07:48:00,
2013-01-05 02:53:00,26.4,19.3,30.32,WSW,255,2.0,6.0,74,0.00,,,0.00,WeatherCatV1.10B1784,2013-01-05 07:53:00,
2013-01-05 02:58:00,26.4,19.3,30.32,West,262,7.0,10.0,74,0.00,,,0.00,WeatherCatV1.10B1784,2013-01-05 07:58:00,
2013-01-05 03:03:00,26.5,19.4,30.32,West,266,2.0,6.0,74,0.00,,,0.00,WeatherCatV1.10B1784,2013-01-05 08:03:00,
2013-01-05 03:08:00,26.5,19.4,30.32,West,269,3.0,5.0,74,0.00,,,0.00,WeatherCatV1.10B1784,2013-01-05 08:08:00,
2013-01-05 03:13:00,26.5,19.4,30.33,WSW,252,4.0,5.0,74,0.00,,,0.00,WeatherCatV1.10B1784,2013-01-05 08:13:00,
2013-01-05 03:18:00,26.5,19.4,30.33,West,274,3.0,6.0,74,0.00,,,0.00,WeatherCatV1.10B1784,2013-01-05 08:18:00,
2013-01-05 03:23:00,26.5,19.4,30.33,West,276,3.0,10.0,74,0.00,,,0.00,WeatherCatV1.10B1784,2013-01-05 08:23:00,
2013-01-05 03:28:00,26.5,19.4,30.33,WSW,248,5.0,11.0,74,0.00,,,0.00,WeatherCatV1.10B1784,2013-01-05 08:28:00,
2013-01-05 03:33:00,26.6,19.5,30.33,West,274,2.0,4.0,74,0.00,,,0.00,WeatherCatV1.10B1784,2013-01-05 08:33:00,
2013-01-05 03:38:00,26.6,19.5,30.33,WSW,256,3.0,4.0,74,0.00,,,0.00,WeatherCatV1.10B1784,2013-01-05 08:38:00,
2013-01-05 03:43:00,26.6,19.5,30.33,West,280,7.0,10.0,74,0.00,,,0.00,WeatherCatV1.10B1784,2013-01-05 08:43:00,
2013-01-05 03:48:00,26.5,19.4,30.33,WSW,237,5.0,9.0,74,0.00,,,0.00,WeatherCatV1.10B1784,2013-01-05 08:48:00,
2013-01-05 03:53:00,26.5,19.4,30.33,WSW,240,4.0,10.0,74,0.00,,,0.00,WeatherCatV1.10B1784,2013-01-05 08:53:00,
2013-01-05 03:58:00,26.6,19.5,30.33,WSW,242,6.0,9.0,74,0.00,,,0.00,WeatherCatV1.10B1784,2013-01-05 08:58:00,
2013-01-05 04:03:00,26.6,19.5,30.33,West,278,6.0,7.0,74,0.00,,,0.00,WeatherCatV1.10B1784,2013-01-05 09:03:00,
2013-01-05 04:08:00,26.6,19.8,30.33,WSW,255,2.0,5.0,75,0.00,,,0.00,WeatherCatV1.10B1784,2013-01-05 09:08:00,
2013-01-05 04:13:00,26.5,19.7,30.33,WSW,256,5.0,8.0,75,0.00,,,0.00,WeatherCatV1.10B1784,2013-01-05 09:13:00,
2013-01-05 04:18:00,26.5,19.7,30.33,West,260,5.0,10.0,75,0.00,,,0.00,WeatherCatV1.10B1784,2013-01-05 09:18:00,
2013-01-05 04:23:00,26.5,19.7,30.33,West,281,3.0,9.0,75,0.00,,,0.00,WeatherCatV1.10B1784,2013-01-05 09:23:00,
2013-01-05 04:28:00,26.5,19.7,30.33,WSW,239,5.0,8.0,75,0.00,,,0.00,WeatherCatV1.10B1784,2013-01-05 09:28:00,
2013-01-05 04:33:00,26.5,19.7,30.34,West,280,4.0,10.0,75,0.00,,,0.00,WeatherCatV1.10B1784,2013-01-05 09:33:00,
2013-01-05 04:38:00,26.5,19.7,30.34,West,259,6.0,7.0,75,0.00,,,0.00,WeatherCatV1.10B1784,2013-01-05 09:38:00,
2013-01-05 04:43:00,26.5,19.7,30.34,WNW,287,6.0,7.0,75,0.00,,,0.00,WeatherCatV1.10B1784,2013-01-05 09:43:00,
2013-01-05 04:48:00,26.6,19.8,30.34,West,276,3.0,8.0,75,0.00,,,0.00,WeatherCatV1.10B1784,2013-01-05 09:48:00,
2013-01-05 04:53:00,26.5,20.0,30.34,WSW,255,5.0,6.0,76,0.00,,,0.00,WeatherCatV1.10B1784,2013-01-05 09:53:00,
2013-01-05 04:58:00,26.5,20.0,30.34,WSW,242,7.0,7.0,76,0.00,,,0.00,WeatherCatV1.10B1784,2013-01-05 09:58:00,
2013-01-05 05:03:00,26.6,20.1,30.34,West,271,7.0,10.0,76,0.00,,,0.00,WeatherCatV1.10B1784,2013-01-05 10:03:00,
2013-01-05 05:08:00,26.6,20.1,30.34,WSW,248,3.0,10.0,76,0.00,,,0.00,WeatherCatV1.10B1784,2013-01-05 10:08:00,
2013-01-05 05:13:00,26.6,20.1,30.34,West,273,4.0,7.0,76,0.00,,,0.00,WeatherCatV1.10B1784,2013-01-05 10:13:00,
2013-01-05 05:18:00,26.5,20.0,30.34,WNW,290,5.0,9.0,76,0.00,,,0.00,WeatherCatV1.10B1784,2013-01-05 10:18:00,
2013-01-05 05:23:00,26.5,20.0,30.34,West,259,2.0,4.0,76,0.00,,,0.00,WeatherCatV1.10B1784,2013-01-05 10:23:00,
2013-01-05 05:28:00,26.5,20.0,30.35,WSW,255,5.0,6.0,76,0.00,,,0.00,WeatherCatV1.10B1784,2013-01-05 10:28:00,
2013-01-05 05:33:00,26.5,20.0,30.35,WSW,248,4.0,8.0,76,0.00,,,0.00,WeatherCatV1.10B1784,2013-01-05 10:33:00,
2013-01-05 05:38:00,26.6,20.1,30.35,WSW,256,4.0,5.0,76,0.00,,,0.00,WeatherCatV1.10B1784,2013-01-05 10:38:00,
2013-01-05 05:43:00,26.6,20.4,30.35,SW,233,4.0,6.0,77,0.00,,,0.00,WeatherCatV1.10B1784,2013-01-05 10:43:00,
2013-01-05 05:48:00,26.6,20.4,30.35,SW,232,6.0,10.0,77,0.00,,,0.00,WeatherCatV1.10B1784,2013-01-05 10:48:00,
2013-01-05 05:53:00,26.6,20.4,30.35,WSW,257,3.0,4.0,77,0.00,,,0.00,WeatherCatV1.10B1784,2013-01-05 10:53:00,
2013-01-05 05:58:00,26.6,20.4,30.35,West,263,4.0,7.0,77,0.00,,,0.00,WeatherCatV1.10B1784,2013-01-05 10:58:00,
2013-01-05 06:03:00,26.6,20.4,30.36,West,262,6.0,6.0,77,0.00,,,0.00,WeatherCatV1.10B1784,2013-01-05 11:03:00,
2013-01-05 06:08:00,26.6,20.4,30.36,WSW,255,2.0,3.0,77,0.00,,,0.00,WeatherCatV1.10B1784,2013-01-05 11:08:00,
2013-01-05 06:13:00,26.6,20.4,30.36,West,273,3.0,6.0,77,0.00,,,0.00,WeatherCatV1.10B1784,2013-01-05 11:13:00,
2013-01-05 06:18:00,26.7,20.5,30.36,West,274,5.0,5.0,77,0.00,,,0.00,WeatherCatV1.10B1784,2013-01-05 11:18:00,
2013-01-05 06:23:00,26.6,20.4,30.36,WSW,245,2.0,4.0,77,0.00,,,0.00,WeatherCatV1.10B1784,2013-01-05 11:23:00,
2013-01-05 06:28:00,26.6,20.7,30.36,WSW,249,3.0,3.0,78,0.00,,,0.00,WeatherCatV1.10B1784,2013-01-05 11:28:00,
2013-01-05 06:33:00,26.7,20.8,30.37,WNW,291,3.0,5.0,78,0.00,,,0.00,WeatherCatV1.10B1784,2013-01-05 11:33:00,
2013-01-05 06:38:00,26.7,20.8,30.37,SW,233,5.0,5.0,78,0.00,,,0.00,WeatherCatV1.10B1784,2013-01-05 11:38:00,
2013-01-05 06:43:00,26.8,20.9,30.36,WNW,284,4.0,7.0,78,0.00,,,0.00,WeatherCatV1.10B1784,2013-01-05 11:43:00,
2013-01-05 06:48:00,26.8,20.9,30.36,WNW,284,1.0,7.0,78,0.00,,,0.00,WeatherCatV1.10B1784,2013-01-05 11:48:00,
2013-01-05 06:53:00,26.8,20.9,30.36,West,278,2.0,5.0,78,0.00,,,0.00,WeatherCatV1.10B1784,2013-01-05 11:53:00,
2013-01-05 06:58:00,26.8,21.2,30.36,WSW,257,5.0,7.0,79,0.00,,,0.00,WeatherCatV1.10B1784,2013-01-05 11:58:00,
2013-01-05 07:03:00,26.7,21.1,30.36,West,262,4.0,5.0,79,0.00,,,0.00,WeatherCatV1.10B1784,2013-01-05 12:03:00,
2013-01-05 07:08:00,26.7,21.1,30.36,West,271,1.0,3.0,79,0.00,,,0.00,WeatherCatV1.10B1784,2013-01-05 12:08:00,
2013-01-05 07:13:00,26.7,21.1,30.36,WSW,240,4.0,6.0,79,0.00,,,0.00,WeatherCatV1.10B1784,2013-01-05 12:13:00,
2013-01-05 07:18:00,26.7,21.1,30.37,WSW,248,4.0,4.0,79,0.00,,,0.00,WeatherCatV1.10B1784,2013-01-05 12:18:00,
2013-01-05 07:23:00,26.7,21.4,30.38,WSW,250,5.0,6.0,80,0.00,,,0.00,WeatherCatV1.10B1784,2013-01-05 12:23:00,
2013-01-05 07:28:00,26.7,21.4,30.38,WSW,255,6.0,9.0,80,0.00,,,0.00,WeatherCatV1.10B1784,2013-01-05 12:28:00,
2013-01-05 07:33:00,26.8,21.5,30.38,WSW,248,7.0,9.0,80,0.00,,,0.00,WeatherCatV1.10B1784,2013-01-05 12:33:00,
2013-01-05 07:38:00,26.9,21.6,30.38,SW,232,2.0,3.0,80,0.00,,,0.00,WeatherCatV1.10B1784,2013-01-05 12:38:00,
2013-01-05 07:43:00,26.8,21.5,30.38,South,182,4.0,7.0,80,0.00,,,0.00,WeatherCatV1.10B1784,2013-01-05 12:43:00,
2013-01-05 07:48:00,26.8,21.5,30.38,SW,216,6.0,6.0,80,0.00,,,0.00,WeatherCatV1.10B1784,2013-01-05 12:48:00,
2013-01-05 07:53:00,26.7,21.4,30.38,West,271,3.0,4.0,80,0.00,,,0.00,WeatherCatV1.10B1784,2013-01-05 12:53:00,
2013-01-05 07:58:00,26.7,21.4,30.38,West,277,2.0,3.0,80,0.00,,,0.00,WeatherCatV1.10B1784,2013-01-05 12:58:00,
2013-01-05 08:03:00,26.7,21.4,30.38,WSW,250,2.0,4.0,80,0.00,,,0.00,WeatherCatV1.10B1784,2013-01-05 13:03:00,
2013-01-05 08:08:00,26.7,21.4,30.39,SW,232,3.0,7.0,80,0.00,,,0.00,WeatherCatV1.10B1784,2013-01-05 13:08:00,
2013-01-05 08:13:00,26.8,21.5,30.39,WSW,256,2.0,5.0,80,0.00,,,0.00,WeatherCatV1.10B1784,2013-01-05 13:13:00,
2013-01-05 08:18:00,26.8,21.5,30.39,WSW,256,2.0,5.0,80,0.00,,,0.00,WeatherCatV1.10B1784,2013-01-05 13:18:00,
2013-01-05 08:23:00,26.9,21.9,30.40,West,263,4.0,6.0,81,0.00,,,0.00,WeatherCatV1.10B1784,2013-01-05 13:23:00,
2013-01-05 08:28:00,26.9,21.9,30.40,South,186,7.0,13.0,81,0.00,,,0.00,WeatherCatV1.10B1784,2013-01-05 13:28:00,
2013-01-05 08:33:00,26.8,21.8,30.40,West,259,5.0,8.0,81,0.00,,,0.00,WeatherCatV1.10B1784,2013-01-05 13:33:00,
2013-01-05 08:38:00,26.8,22.1,30.41,West,259,2.0,8.0,82,0.00,,,0.00,WeatherCatV1.10B1784,2013-01-05 13:38:00,
2013-01-05 08:43:00,26.8,21.8,30.41,West,270,7.0,9.0,81,0.00,,,0.00,WeatherCatV1.10B1784,2013-01-05 13:43:00,
2013-01-05 08:48:00,26.8,21.8,30.41,WSW,243,6.0,10.0,81,0.00,,,0.00,WeatherCatV1.10B1784,2013-01-05 13:48:00,
2013-01-05 08:53:00,26.8,22.1,30.41,West,259,5.0,5.0,82,0.00,,,0.00,WeatherCatV1.10B1784,2013-01-05 13:53:00,
2013-01-05 08:58:00,26.8,21.8,30.41,West,262,3.0,4.0,81,0.00,,,0.00,WeatherCatV1.10B1784,2013-01-05 13:58:00,
2013-01-05 09:03:00,26.8,21.8,30.41,WSW,250,3.0,7.0,81,0.00,,,0.00,WeatherCatV1.10B1784,2013-01-05 14:03:00,
2013-01-05 09:08:00,26.9,21.9,30.41,SW,235,3.0,5.0,81,0.00,,,0.00,WeatherCatV1.10B1784,2013-01-05 14:08:00,
2013-01-05 09:13:00,27.0,22.0,30.41,SW,217,4.0,9.0,81,0.00,,,0.00,WeatherCatV1.10B1784,2013-01-05 14:13:00,
2013-01-05 09:18:00,27.0,22.0,30.41,West,276,4.0,7.0,81,0.00,,,0.00,WeatherCatV1.10B1784,2013-01-05 14:18:00,
2013-01-05 09:23:00,27.1,22.1,30.41,SSW,201,6.0,8.0,81,0.00,,,0.00,WeatherCatV1.10B1784,2013-01-05 14:23:00,
2013-01-05 09:28:00,27.1,22.1,30.41,WSW,255,7.0,7.0,81,0.00,,,0.00,WeatherCatV1.10B1784,2013-01-05 14:28:00,
2013-01-05 09:33:00,27.1,21.8,30.42,WSW,248,8.0,10.0,80,0.00,,,0.00,WeatherCatV1.10B1784,2013-01-05 14:33:00,
2013-01-05 09:38:00,27.1,21.8,30.41,SSW,201,6.0,12.0,80,0.00,,,0.00,WeatherCatV1.10B1784,2013-01-05 14:38:00,
2013-01-05 09:43:00,27.1,22.1,30.41,West,266,6.0,6.0,81,0.00,,,0.00,WeatherCatV1.10B1784,2013-01-05 14:43:00,
2013-01-05 09:48:00,27.2,22.2,30.42,WSW,242,2.0,8.0,81,0.00,,,0.00,WeatherCatV1.10B1784,2013-01-05 14:48:00,
2013-01-05 09:53:00,27.3,22.3,30.42,West,270,3.0,4.0,81,0.00,,,0.00,WeatherCatV1.10B1784,2013-01-05 14:53:00,
2013-01-05 09:58:00,27.5,22.2,30.42,West,262,3.0,7.0,80,0.00,,,0.00,WeatherCatV1.10B1784,2013-01-05 14:58:00,
2013-01-05 10:03:00,27.6,22.3,30.41,West,264,4.0,7.0,80,0.00,,,0.00,WeatherCatV1.10B1784,2013-01-05 15:03:00,
2013-01-05 10:08:00,27.7,22.4,30.41,WSW,249,8.0,8.0,80,0.00,,,0.00,WeatherCatV1.10B1784,2013-01-05 15:08:00,
2013-01-05 10:13:00,27.9,22.2,30.41,SSW,208,0.0,5.0,79,0.00,,,0.00,WeatherCatV1.10B1784,2013-01-05 15:13:00,
2013-01-05 10:18:00,28.1,22.4,30.41,WSW,243,3.0,8.0,79,0.00,,,0.00,WeatherCatV1.10B1784,2013-01-05 15:18:00,
2013-01-05 10:23:00,28.1,22.1,30.40,West,262,6.0,8.0,78,0.00,,,0.00,WeatherCatV1.10B1784,2013-01-05 15:23:00,
2013-01-05 10:28:00,28.2,22.2,30.40,WSW,248,3.0,6.0,78,0.00,,,0.00,WeatherCatV1.10B1784,2013-01-05 15:28:00,
2013-01-05 10:33:00,28.3,22.3,30.40,WSW,250,4.0,6.0,78,0.00,,,0.00,WeatherCatV1.10B1784,2013-01-05 15:33:00,
2013-01-05 10:38:00,28.7,22.7,30.40,West,259,4.0,4.0,78,0.00,,,0.00,WeatherCatV1.10B1784,2013-01-05 15:38:00,
2013-01-05 10:43:00,28.9,22.9,30.40,SSE,153,1.0,3.0,78,0.00,,,0.00,WeatherCatV1.10B1784,2013-01-05 15:43:00,
2013-01-05 10:48:00,29.2,22.9,30.40,South,179,4.0,9.0,77,0.00,,,0.00,WeatherCatV1.10B1784,2013-01-05 15:48:00,
2013-01-05 10:53:00,29.3,23.0,30.40,ESE,102,1.0,7.0,77,0.00,,,0.00,WeatherCatV1.10B1784,2013-01-05 15:53:00,
2013-01-05 10:58:00,29.4,22.8,30.39,South,188,6.0,10.0,76,0.00,,,0.00,WeatherCatV1.10B1784,2013-01-05 15:58:00,
2013-01-05 11:03:00,29.4,22.8,30.39,West,259,3.0,7.0,76,0.00,,,0.00,WeatherCatV1.10B1784,2013-01-05 16:03:00,
2013-01-05 11:08:00,29.2,22.6,30.39,West,263,3.0,6.0,76,0.00,,,0.00,WeatherCatV1.10B1784,2013-01-05 16:08:00,
2013-01-05 11:13:00,29.9,23.6,30.39,WSW,248,3.0,4.0,77,0.00,,,0.00,WeatherCatV1.10B1784,2013-01-05 16:13:00,
2013-01-05 11:18:00,30.4,23.1,30.39,SW,215,5.0,11.0,74,0.00,,,0.00,WeatherCatV1.10B1784,2013-01-05 16:18:00,
2013-01-05 11:23:00,30.2,23.2,30.38,SW,222,6.0,9.0,75,0.00,,,0.00,WeatherCatV1.10B1784,2013-01-05 16:23:00,
2013-01-05 11:28:00,29.9,23.0,30.38,WSW,238,5.0,5.0,75,0.00,,,0.00,WeatherCatV1.10B1784,2013-01-05 16:28:00,
2013-01-05 11:33:00,30.1,23.2,30.38,WSW,245,7.0,8.0,75,0.00,,,0.00,WeatherCatV1.10B1784,2013-01-05 16:33:00,
2013-01-05 11:38:00,30.1,23.5,30.38,SW,225,5.0,8.0,76,0.00,,,0.00,WeatherCatV1.10B1784,2013-01-05 16:38:00,
2013-01-05 11:43:00,30.1,23.2,30.38,WSW,237,7.0,7.0,75,0.00,,,0.00,WeatherCatV1.10B1784,2013-01-05 16:43:00,
2013-01-05 11:48:00,30.0,23.1,30.38,West,263,5.0,10.0,75,0.00,,,0.00,WeatherCatV1.10B1784,2013-01-05 16:48:00,
2013-01-05 11:53:00,30.0,23.4,30.38,West,273,4.0,5.0,76,0.00,,,0.00,WeatherCatV1.10B1784,2013-01-05 16:53:00,
2013-01-05 11:58:00,30.3,23.7,30.37,SW,224,2.0,6.0,76,0.00,,,0.00,WeatherCatV1.10B1784,2013-01-05 16:58:00,
2013-01-05 12:03:00,30.9,23.9,30.37,WSW,253,9.0,9.0,75,0.00,,,0.00,WeatherCatV1.10B1784,2013-01-05 17:03:00,
2013-01-05 12:08:00,31.1,23.8,30.37,WSW,238,5.0,6.0,74,0.00,,,0.00,WeatherCatV1.10B1784,2013-01-05 17:08:00,
2013-01-05 12:13:00,31.5,24.2,30.36,West,274,5.0,9.0,74,0.00,,,0.00,WeatherCatV1.10B1784,2013-01-05 17:13:00,
2013-01-05 12:18:00,31.7,24.1,30.36,South,177,3.0,10.0,73,0.00,,,0.00,WeatherCatV1.10B1784,2013-01-05 17:18:00,
2013-01-05 12:23:00,31.8,23.8,30.35,SW,218,10.0,11.0,72,0.00,,,0.00,WeatherCatV1.10B1784,2013-01-05 17:23:00,
2013-01-05 12:28:00,32.0,24.0,30.35,SSW,205,7.0,12.0,72,0.00,,,0.00,WeatherCatV1.10B1784,2013-01-05 17:28:00,
2013-01-05 12:33:00,32.7,24.4,30.34,WSW,238,4.0,9.0,71,0.00,,,0.00,WeatherCatV1.10B1784,2013-01-05 17:33:00,
2013-01-05 12:38:00,33.3,24.6,30.34,SSW,207,7.0,8.0,70,0.00,,,0.00,WeatherCatV1.10B1784,2013-01-05 17:38:00,
2013-01-05 12:43:00,33.7,24.6,30.33,SSW,210,3.0,6.0,69,0.00,,,0.00,WeatherCatV1.10B1784,2013-01-05 17:43:00,
2013-01-05 12:48:00,34.0,24.9,30.33,SSW,211,3.0,5.0,69,0.00,,,0.00,WeatherCatV1.10B1784,2013-01-05 17:48:00,
2013-01-05 12:53:00,34.1,24.7,30.32,SE,136,1.0,6.0,68,0.00,,,0.00,WeatherCatV1.10B1784,2013-01-05 17:53:00,
2013-01-05 12:58:00,34.0,24.9,30.32,WSW,255,3.0,7.0,69,0.00,,,0.00,WeatherCatV1.10B1784,2013-01-05 17:58:00,
2013-01-05 13:03:00,34.1,24.7,30.32,South,177,1.0,6.0,68,0.00,,,0.00,WeatherCatV1.10B1784,2013-01-05 18:03:00,
2013-01-05 13:08:00,34.2,24.4,30.32,SW,233,3.0,10.0,67,0.00,,,0.00,WeatherCatV1.10B1784,2013-01-05 18:08:00,
2013-01-05 13:13:00,34.5,25.0,30.31,South,174,0.0,6.0,68,0.00,,,0.00,WeatherCatV1.10B1784,2013-01-05 18:13:00,
2013-01-05 13:18:00,34.6,24.8,30.31,SW,217,9.0,9.0,67,0.00,,,0.00,WeatherCatV1.10B1784,2013-01-05 18:18:00,
2013-01-05 13:23:00,34.8,25.0,30.31,SSW,205,6.0,10.0,67,0.00,,,0.00,WeatherCatV1.10B1784,2013-01-05 18:23:00,
2013-01-05 13:28:00,35.1,24.9,30.31,SW,231,5.0,10.0,66,0.00,,,0.00,WeatherCatV1.10B1784,2013-01-05 18:28:00,
2013-01-05 13:33:00,34.9,25.1,30.31,SSW,203,6.0,10.0,67,0.00,,,0.00,WeatherCatV1.10B1784,2013-01-05 18:33:00,
2013-01-05 13:38:00,35.0,24.8,30.30,WSW,246,9.0,9.0,66,0.00,,,0.00,WeatherCatV1.10B1784,2013-01-05 18:38:00,
2013-01-05 13:43:00,35.3,25.1,30.30,SW,235,4.0,6.0,66,0.00,,,0.00,WeatherCatV1.10B1784,2013-01-05 18:43:00,
2013-01-05 13:48:00,35.6,25.4,30.30,WSW,245,2.0,5.0,66,0.00,,,0.00,WeatherCatV1.10B1784,2013-01-05 18:48:00,
2013-01-05 13:53:00,35.7,25.1,30.30,South,187,4.0,6.0,65,0.00,,,0.00,WeatherCatV1.10B1784,2013-01-05 18:53:00,
2013-01-05 13:58:00,35.7,25.1,30.29,SW,221,4.0,7.0,65,0.00,,,0.00,WeatherCatV1.10B1784,2013-01-05 18:58:00,
2013-01-05 14:03:00,36.0,25.4,30.29,WSW,238,3.0,4.0,65,0.00,,,0.00,WeatherCatV1.10B1784,2013-01-05 19:03:00,
2013-01-05 14:08:00,36.1,25.1,30.29,SW,231,3.0,7.0,64,0.00,,,0.00,WeatherCatV1.10B1784,2013-01-05 19:08:00,
2013-01-05 14:13:00,36.6,25.6,30.28,WSW,238,5.0,8.0,64,0.00,,,0.00,WeatherCatV1.10B1784,2013-01-05 19:13:00,
2013-01-05 14:18:00,36.4,25.0,30.28,SSW,212,2.0,8.0,63,0.00,,,0.00,WeatherCatV1.10B1784,2013-01-05 19:18:00,
2013-01-05 14:23:00,36.6,25.2,30.29,WSW,248,2.0,4.0,63,0.00,,,0.00,WeatherCatV1.10B1784,2013-01-05 19:23:00,
2013-01-05 14:28:00,36.9,25.5,30.28,SSW,195,4.0,6.0,63,0.00,,,0.00,WeatherCatV1.10B1784,2013-01-05 19:28:00,
2013-01-05 14:33:00,37.1,24.9,30.28,WSW,253,8.0,8.0,61,0.00,,,0.00,WeatherCatV1.10B1784,2013-01-05 19:33:00,
2013-01-05 14:38:00,36.5,25.1,30.28,West,261,4.0,6.0,63,0.00,,,0.00,WeatherCatV1.10B1784,2013-01-05 19:38:00,
2013-01-05 14:43:00,36.3,24.9,30.28,SSW,203,7.0,8.0,63,0.00,,,0.00,WeatherCatV1.10B1784,2013-01-05 19:43:00,
2013-01-05 14:48:00,36.9,25.1,30.28,SSW,203,3.0,7.0,62,0.00,,,0.00,WeatherCatV1.10B1784,2013-01-05 19:48:00,
2013-01-05 14:53:00,36.9,25.1,30.28,SE,136,3.0,8.0,62,0.00,,,0.00,WeatherCatV1.10B1784,2013-01-05 19:53:00,
2013-01-05 14:58:00,37.1,25.3,30.28,WNW,285,6.0,7.0,62,0.00,,,0.00,WeatherCatV1.10B1784,2013-01-05 19:58:00,
2013-01-05 15:03:00,36.5,25.1,30.30,WSW,250,11.0,12.0,63,0.00,,,0.00,WeatherCatV1.10B1784,2013-01-05 20:03:00,
2013-01-05 15:08:00,36.0,25.0,30.30,West,260,4.0,10.0,64,0.00,,,0.00,WeatherCatV1.10B1784,2013-01-05 20:08:00,
2013-01-05 15:13:00,35.8,24.8,30.30,SSW,205,3.0,10.0,64,0.00,,,0.00,WeatherCatV1.10B1784,2013-01-05 20:13:00,
2013-01-05 15:18:00,36.0,25.0,30.29,SW,226,6.0,12.0,64,0.00,,,0.00,WeatherCatV1.10B1784,2013-01-05 20:18:00,
2013-01-05 15:23:00,35.9,25.3,30.28,WSW,248,6.0,7.0,65,0.00,,,0.00,WeatherCatV1.10B1784,2013-01-05 20:23:00,
2013-01-05 15:28:00,36.6,25.6,30.27,WNW,285,4.0,5.0,64,0.00,,,0.00,WeatherCatV1.10B1784,2013-01-05 20:28:00,
2013-01-05 15:33:00,37.2,25.4,30.28,SW,226,5.0,7.0,62,0.00,,,0.00,WeatherCatV1.10B1784,2013-01-05 20:33:00,
2013-01-05 15:38:00,37.1,25.3,30.27,WSW,245,7.0,8.0,62,0.00,,,0.00,WeatherCatV1.10B1784,2013-01-05 20:38:00,
2013-01-05 15:43:00,36.4,24.6,30.27,West,273,4.0,7.0,62,0.00,,,0.00,WeatherCatV1.10B1784,2013-01-05 20:43:00,
2013-01-05 15:48:00,36.1,25.1,30.27,SW,216,4.0,7.0,64,0.00,,,0.00,WeatherCatV1.10B1784,2013-01-05 20:48:00,
2013-01-05 15:53:00,35.9,24.9,30.26,SW,224,5.0,5.0,64,0.00,,,0.00,WeatherCatV1.10B1784,2013-01-05 20:53:00,
2013-01-05 15:58:00,36.1,25.1,30.27,SSW,208,5.0,8.0,64,0.00,,,0.00,WeatherCatV1.10B1784,2013-01-05 20:58:00,
2013-01-05 16:03:00,36.4,25.0,30.27,WSW,238,4.0,6.0,63,0.00,,,0.00,WeatherCatV1.10B1784,2013-01-05 21:03:00,
2013-01-05 16:08:00,37.2,25.8,30.26,SSE,158,2.0,3.0,63,0.00,,,0.00,WeatherCatV1.10B1784,2013-01-05 21:08:00,
2013-01-05 16:13:00,37.6,25.4,30.26,SW,215,4.0,7.0,61,0.00,,,0.00,WeatherCatV1.10B1784,2013-01-05 21:13:00,
2013-01-05 16:18:00,37.6,25.4,30.26,WSW,248,5.0,5.0,61,0.00,,,0.00,WeatherCatV1.10B1784,2013-01-05 21:18:00,
2013-01-05 16:23:00,36.9,25.1,30.27,WSW,248,6.0,8.0,62,0.00,,,0.00,WeatherCatV1.10B1784,2013-01-05 21:23:00,
2013-01-05 16:28:00,37.0,25.2,30.26,WSW,240,3.0,4.0,62,0.00,,,0.00,WeatherCatV1.10B1784,2013-01-05 21:28:00,
2013-01-05 16:33:00,37.1,25.3,30.25,SW,219,4.0,4.0,62,0.00,,,0.00,WeatherCatV1.10B1784,2013-01-05 21:33:00,
2013-01-05 16:38:00,36.8,25.0,30.25,WSW,245,3.0,5.0,62,0.00,,,0.00,WeatherCatV1.10B1784,2013-01-05 21:38:00,
2013-01-05 16:43:00,36.3,24.9,30.26,SW,231,4.0,4.0,63,0.00,,,0.00,WeatherCatV1.10B1784,2013-01-05 21:43:00,
2013-01-05 16:48:00,35.7,24.7,30.26,SSW,200,2.0,4.0,64,0.00,,,0.00,WeatherCatV1.10B1784,2013-01-05 21:48:00,
2013-01-05 16:53:00,35.4,24.8,30.25,WSW,254,3.0,4.0,65,0.00,,,0.00,WeatherCatV1.10B1784,2013-01-05 21:53:00,
2013-01-05 16:58:00,35.1,24.9,30.25,SSW,192,3.0,3.0,66,0.00,,,0.00,WeatherCatV1.10B1784,2013-01-05 21:58:00,
2013-01-05 17:03:00,34.8,24.6,30.25,SSW,193,0.0,3.0,66,0.00,,,0.00,WeatherCatV1.10B1784,2013-01-05 22:03:00,
2013-01-05 17:08:00,34.6,24.8,30.25,South,188,1.0,2.0,67,0.00,,,0.00,WeatherCatV1.10B1784,2013-01-05 22:08:00,
2013-01-05 17:13:00,34.0,24.2,30.25,SSW,208,1.0,1.0,67,0.00,,,0.00,WeatherCatV1.10B1784,2013-01-05 22:13:00,
2013-01-05 17:18:00,33.3,24.2,30.25,SW,219,1.0,1.0,69,0.00,,,0.00,WeatherCatV1.10B1784,2013-01-05 22:18:00,
2013-01-05 17:23:00,33.1,24.4,30.25,SSW,207,0.0,1.0,70,0.00,,,0.00,WeatherCatV1.10B1784,2013-01-05 22:23:00,
2013-01-05 17:28:00,32.8,24.4,30.25,SW,214,0.0,1.0,71,0.00,,,0.00,WeatherCatV1.10B1784,2013-01-05 22:28:00,
2013-01-05 17:34:00,32.4,24.7,30.24,SW,222,0.0,2.0,73,0.00,,,0.00,WeatherCatV1.10B1784,2013-01-05 22:34:00,
2013-01-05 17:39:00,32.6,24.6,30.25,WSW,245,2.0,2.0,72,0.00,,,0.00,WeatherCatV1.10B1784,2013-01-05 22:39:00,
2013-01-05 17:44:00,31.5,24.2,30.25,WSW,248,2.0,2.0,74,0.00,,,0.00,WeatherCatV1.10B1784,2013-01-05 22:44:00,
2013-01-05 17:49:00,30.8,24.1,30.25,WSW,248,1.0,2.0,76,0.00,,,0.00,WeatherCatV1.10B1784,2013-01-05 22:49:00,
2013-01-05 17:54:00,30.9,24.2,30.24,SW,216,0.0,0.0,76,0.00,,,0.00,WeatherCatV1.10B1784,2013-01-05 22:54:00,
2013-01-05 17:59:00,31.3,24.6,30.24,SW,225,1.0,2.0,76,0.00,,,0.00,WeatherCatV1.10B1784,2013-01-05 22:59:00,
2013-01-05 18:04:00,30.8,24.1,30.24,WSW,238,0.0,0.0,76,0.00,,,0.00,WeatherCatV1.10B1784,2013-01-05 23:04:00,
2013-01-05 18:09:00,30.8,24.5,30.24,WSW,238,0.0,2.0,77,0.00,,,0.00,WeatherCatV1.10B1784,2013-01-05 23:09:00,
2013-01-05 18:14:00,30.5,24.2,30.24,WSW,257,1.0,1.0,77,0.00,,,0.00,WeatherCatV1.10B1784,2013-01-05 23:14:00,
2013-01-05 18:19:00,30.2,24.5,30.24,WSW,257,1.0,1.0,79,0.00,,,0.00,WeatherCatV1.10B1784,2013-01-05 23:19:00,
2013-01-05 18:24:00,30.0,24.3,30.24,West,280,1.0,1.0,79,0.00,,,0.00,WeatherCatV1.10B1784,2013-01-05 23:24:00,
2013-01-05 18:29:00,30.0,24.3,30.25,WSW,251,1.0,2.0,79,0.00,,,0.00,WeatherCatV1.10B1784,2013-01-05 23:29:00,
2013-01-05 18:34:00,30.4,24.7,30.24,SSW,206,0.0,2.0,79,0.00,,,0.00,WeatherCatV1.10B1784,2013-01-05 23:34:00,
2013-01-05 18:39:00,31.4,25.0,30.24,South,173,2.0,2.0,77,0.00,,,0.00,WeatherCatV1.10B1784,2013-01-05 23:39:00,
2013-01-05 18:44:00,32.2,25.2,30.24,South,186,0.0,1.0,75,0.00,,,0.00,WeatherCatV1.10B1784,2013-01-05 23:44:00,
2013-01-05 18:49:00,32.0,25.3,30.23,SSW,195,0.0,0.0,76,0.00,,,0.00,WeatherCatV1.10B1784,2013-01-05 23:49:00,
2013-01-05 18:54:00,31.9,24.9,30.22,SW,218,0.0,1.0,75,0.00,,,0.00,WeatherCatV1.10B1784,2013-01-05 23:54:00,
2013-01-05 18:59:00,31.7,25.0,30.23,WSW,250,1.0,2.0,76,0.00,,,0.00,WeatherCatV1.10B1784,2013-01-05 23:59:00,
2013-01-05 19:04:00,31.4,25.0,30.23,WSW,238,0.0,1.0,77,0.00,,,0.00,WeatherCatV1.10B1784,2013-01-06 00:04:00,
2013-01-05 19:09:00,31.6,25.2,30.23,West,259,1.0,3.0,77,0.00,,,0.00,WeatherCatV1.10B1784,2013-01-06 00:09:00,
2013-01-05 19:14:00,32.1,25.4,30.23,South,184,1.0,2.0,76,0.00,,,0.00,WeatherCatV1.10B1784,2013-01-06 00:14:00,
2013-01-05 19:19:00,32.7,25.7,30.23,SW,215,0.0,1.0,75,0.00,,,0.00,WeatherCatV1.10B1784,2013-01-06 00:19:00,
2013-01-05 19:24:00,32.9,25.5,30.23,SSW,194,2.0,4.0,74,0.00,,,0.00,WeatherCatV1.10B1784,2013-01-06 00:24:00,
2013-01-05 19:29:00,33.3,25.6,30.23,South,184,1.0,3.0,73,0.00,,,0.00,WeatherCatV1.10B1784,2013-01-06 00:29:00,
2013-01-05 19:34:00,33.4,25.7,30.23,SSW,207,1.0,2.0,73,0.00,,,0.00,WeatherCatV1.10B1784,2013-01-06 00:34:00,
2013-01-05 19:39:00,33.4,25.7,30.22,South,186,2.0,2.0,73,0.00,,,0.00,WeatherCatV1.10B1784,2013-01-06 00:39:00,
2013-01-05 19:44:00,33.6,25.6,30.22,SSW,199,0.0,1.0,72,0.00,,,0.00,WeatherCatV1.10B1784,2013-01-06 00:44:00,
2013-01-05 19:49:00,33.4,25.7,30.22,SW,219,0.0,1.0,73,0.00,,,0.00,WeatherCatV1.10B1784,2013-01-06 00:49:00,
2013-01-05 19:54:00,33.2,25.8,30.22,SSW,203,0.0,0.0,74,0.00,,,0.00,WeatherCatV1.10B1784,2013-01-06 00:54:00,
2013-01-05 19:59:00,32.8,25.8,30.22,SSW,203,0.0,0.0,75,0.00,,,0.00,WeatherCatV1.10B1784,2013-01-06 00:59:00,
2013-01-05 20:04:00,32.4,25.7,30.22,SSW,203,0.0,0.0,76,0.00,,,0.00,WeatherCatV1.10B1784,2013-01-06 01:04:00,
2013-01-05 20:09:00,32.4,26.0,30.22,WSW,249,1.0,1.0,77,0.00,,,0.00,WeatherCatV1.10B1784,2013-01-06 01:09:00,
2013-01-05 20:14:00,32.0,25.9,30.22,WSW,242,1.0,2.0,78,0.00,,,0.00,WeatherCatV1.10B1784,2013-01-06 01:14:00,
2013-01-05 20:19:00,31.9,26.1,30.22,West,272,0.0,1.0,79,0.00,,,0.00,WeatherCatV1.10B1784,2013-01-06 01:19:00,
2013-01-05 20:24:00,32.0,25.9,30.21,WSW,245,1.0,1.0,78,0.00,,,0.00,WeatherCatV1.10B1784,2013-01-06 01:24:00,
2013-01-05 20:29:00,32.6,25.9,30.22,WSW,243,1.0,1.0,76,0.00,,,0.00,WeatherCatV1.10B1784,2013-01-06 01:29:00,
2013-01-05 20:34:00,32.6,26.2,30.22,West,271,1.0,2.0,77,0.00,,,0.00,WeatherCatV1.10B1784,2013-01-06 01:34:00,
2013-01-05 20:39:00,32.2,26.1,30.22,WNW,284,0.0,1.0,78,0.00,,,0.00,WeatherCatV1.10B1784,2013-01-06 01:39:00,
2013-01-05 20:44:00,32.3,25.9,30.22,West,266,0.0,1.0,77,0.00,,,0.00,WeatherCatV1.10B1784,2013-01-06 01:44:00,
2013-01-05 20:49:00,32.1,26.0,30.22,South,174,0.0,1.0,78,0.00,,,0.00,WeatherCatV1.10B1784,2013-01-06 01:49:00,
2013-01-05 20:54:00,32.1,26.0,30.22,South,174,0.0,0.0,78,0.00,,,0.00,WeatherCatV1.10B1784,2013-01-06 01:54:00,
2013-01-05 20:59:00,32.2,25.8,30.22,South,173,0.0,0.0,77,0.00,,,0.00,WeatherCatV1.10B1784,2013-01-06 01:59:00,
2013-01-05 21:04:00,31.9,25.8,30.22,SW,232,1.0,1.0,78,0.00,,,0.00,WeatherCatV1.10B1784,2013-01-06 02:04:00,
2013-01-05 21:09:00,32.3,25.9,30.22,South,190,1.0,2.0,77,0.00,,,0.00,WeatherCatV1.10B1784,2013-01-06 02:09:00,
2013-01-05 21:14:00,32.4,25.7,30.22,WSW,255,2.0,2.0,76,0.00,,,0.00,WeatherCatV1.10B1784,2013-01-06 02:14:00,
2013-01-05 21:19:00,32.7,25.7,30.21,SW,215,1.0,2.0,75,0.00,,,0.00,WeatherCatV1.10B1784,2013-01-06 02:19:00,
2013-01-05 21:24:00,33.3,25.9,30.20,SSW,197,2.0,2.0,74,0.00,,,0.00,WeatherCatV1.10B1784,2013-01-06 02:24:00,
2013-01-05 21:29:00,33.3,26.2,30.20,WSW,243,2.0,3.0,75,0.00,,,0.00,WeatherCatV1.10B1784,2013-01-06 02:29:00,
2013-01-05 21:34:00,33.4,26.0,30.20,SW,224,1.0,2.0,74,0.00,,,0.00,WeatherCatV1.10B1784,2013-01-06 02:34:00,
2013-01-05 21:39:00,33.6,25.9,30.20,SW,226,0.0,1.0,73,0.00,,,0.00,WeatherCatV1.10B1784,2013-01-06 02:39:00,
2013-01-05 21:44:00,33.6,25.9,30.20,WSW,250,1.0,2.0,73,0.00,,,0.00,WeatherCatV1.10B1784,2013-01-06 02:44:00,
2013-01-05 21:49:00,33.5,26.1,30.20,SSW,211,0.0,1.0,74,0.00,,,0.00,WeatherCatV1.10B1784,2013-01-06 02:49:00,
2013-01-05 21:54:00,33.3,26.2,30.20,SW,235,1.0,3.0,75,0.00,,,0.00,WeatherCatV1.10B1784,2013-01-06 02:54:00,
2013-01-05 21:59:00,33.3,25.9,30.19,SW,224,4.0,4.0,74,0.00,,,0.00,WeatherCatV1.10B1784,2013-01-06 02:59:00,
2013-01-05 22:04:00,33.7,26.0,30.19,SSW,198,1.0,1.0,73,0.00,,,0.00,WeatherCatV1.10B1784,2013-01-06 03:04:00,
2013-01-05 22:09:00,33.8,26.1,30.19,SW,226,0.0,2.0,73,0.00,,,0.00,WeatherCatV1.10B1784,2013-01-06 03:09:00,
2013-01-05 22:14:00,33.8,26.4,30.19,South,188,1.0,3.0,74,0.00,,,0.00,WeatherCatV1.10B1784,2013-01-06 03:14:00,
2013-01-05 22:19:00,33.4,26.7,30.19,SSW,210,0.0,2.0,76,0.00,,,0.00,WeatherCatV1.10B1784,2013-01-06 03:19:00,
2013-01-05 22:24:00,33.3,25.9,30.19,SSE,166,2.0,3.0,74,0.00,,,0.00,WeatherCatV1.10B1784,2013-01-06 03:24:00,
2013-01-05 22:29:00,33.7,26.3,30.19,SW,225,4.0,5.0,74,0.00,,,0.00,WeatherCatV1.10B1784,2013-01-06 03:29:00,
2013-01-05 22:34:00,34.0,25.9,30.19,SSW,200,1.0,2.0,72,0.00,,,0.00,WeatherCatV1.10B1784,2013-01-06 03:34:00,
2013-01-05 22:39:00,34.0,25.9,30.19,SW,232,1.0,5.0,72,0.00,,,0.00,WeatherCatV1.10B1784,2013-01-06 03:39:00,
2013-01-05 22:44:00,34.1,26.0,30.19,WSW,245,0.0,1.0,72,0.00,,,0.00,WeatherCatV1.10B1784,2013-01-06 03:44:00,
2013-01-05 22:49:00,34.1,26.0,30.19,SSW,201,0.0,1.0,72,0.00,,,0.00,WeatherCatV1.10B1784,2013-01-06 03:49:00,
2013-01-05 22:54:00,34.0,26.3,30.19,SW,228,1.0,3.0,73,0.00,,,0.00,WeatherCatV1.10B1784,2013-01-06 03:54:00,
2013-01-05 22:59:00,33.9,26.2,30.19,SW,214,2.0,2.0,73,0.00,,,0.00,WeatherCatV1.10B1784,2013-01-06 03:59:00,
2013-01-05 23:04:00,33.7,26.3,30.19,SW,225,1.0,2.0,74,0.00,,,0.00,WeatherCatV1.10B1784,2013-01-06 04:04:00,
2013-01-05 23:09:00,33.7,26.3,30.19,WSW,242,1.0,2.0,74,0.00,,,0.00,WeatherCatV1.10B1784,2013-01-06 04:09:00,
2013-01-05 23:14:00,33.5,26.1,30.18,SW,233,1.0,2.0,74,0.00,,,0.00,WeatherCatV1.10B1784,2013-01-06 04:14:00,
2013-01-05 23:19:00,33.6,25.9,30.18,SW,231,1.0,2.0,73,0.00,,,0.00,WeatherCatV1.10B1784,2013-01-06 04:19:00,
2013-01-05 23:24:00,33.7,26.0,30.18,West,266,2.0,4.0,73,0.00,,,0.00,WeatherCatV1.10B1784,2013-01-06 04:24:00,
2013-01-05 23:29:00,33.8,26.1,30.18,WSW,250,2.0,2.0,73,0.00,,,0.00,WeatherCatV1.10B1784,2013-01-06 04:29:00,
2013-01-05 23:34:00,33.8,26.1,30.18,WSW,250,2.0,2.0,73,0.00,,,0.00,WeatherCatV1.10B1784,2013-01-06 04:34:00,
2013-01-05 23:39:00,33.9,26.2,30.18,SW,232,1.0,3.0,73,0.00,,,0.00,WeatherCatV1.10B1784,2013-01-06 04:39:00,
2013-01-05 23:44:00,33.9,26.2,30.17,SW,225,1.0,1.0,73,0.00,,,0.00,WeatherCatV1.10B1784,2013-01-06 04:44:00,
2013-01-05 23:49:00,34.0,25.9,30.17,WSW,252,2.0,3.0,72,0.00,,,0.00,WeatherCatV1.10B1784,2013-01-06 04:49:00,
2013-01-05 23:54:00,34.0,26.3,30.17,SSW,197,1.0,3.0,73,0.00,,,0.00,WeatherCatV1.10B1784,2013-01-06 04:54:00,
2013-01-05 23:59:00,34.0,26.3,30.17,WSW,238,4.0,4.0,73,0.00,,,0.00,WeatherCatV1.10B1784,2013-01-06 04:59:00,